Precipitable_Water
1.40 1.48 1.57 1.69 1.81 1.71 1.51 1.48 1.51 1.46 1.56 1.58 1.63 1.42 1.41 1.28 1.21 1.19 1.20 1.14 1.08 0.99 0.87 1.01 0.95 0.98 0.94 0.86 0.85 0.91 0.84 0.86 0.83 0.81 0.80 0.76 0.81 0.78 0.76 0.75 0.73 0.71 0.70
1.41 1.39 1.45 1.60 1.74 1.75 1.56 1.50 1.46 1.41 1.43 1.43 1.41 1.44 1.36 1.28 1.23 1.21 1.23 1.17 1.09 0.99 0.90 0.94 0.92 0.93 0.96 0.86 0.89 0.90 0.81 0.85 0.84 0.81 0.79 0.77 0.77 0.75 0.74 0.74 0.71 0.69 0.68
1.39 1.42 1.45 1.47 1.66 1.81 1.70 1.65 1.66 1.43 1.36 1.28 1.22 1.24 1.28 1.27 1.22 1.22 1.24 1.20 1.14 0.99 0.87 0.85 0.99 0.89 0.91 0.94 0.90 0.88 0.82 0.87 0.80 0.82 0.78 0.78 0.76 0.74 0.73 0.72 0.73 0.71 0.69
1.31 1.38 1.41 1.47 1.53 1.65 1.77 1.78 1.73 1.63 1.54 1.44 1.38 1.24 1.21 1.22 1.21 1.26 1.26 1.19 1.17 1.03 0.88 0.85 1.08 0.91 0.91 0.98 0.89 0.84 0.88 0.87 0.83 0.82 0.79 0.76 0.77 0.75 0.74 0.75 0.73 0.72 0.71
1.23 1.33 1.36 1.44 1.49 1.53 1.71 1.79 1.66 1.71 1.60 1.59 1.51 1.35 1.20 1.15 1.20 1.28 1.26 1.20 1.18 1.10 0.94 0.84 0.96 0.89 0.84 0.94 0.93 0.89 0.91 0.88 0.86 0.88 0.80 0.76 0.79 0.77 0.76 0.74 0.73 0.73 0.72
1.18 1.27 1.33 1.39 1.46 1.45 1.52 1.71 1.68 1.72 1.61 1.60 1.58 1.41 1.29 1.13 1.22 1.28 1.31 1.26 1.20 1.13 1.06 0.85 0.86 0.84 0.84 0.89 0.92 0.91 0.97 0.87 0.89 0.88 0.87 0.79 0.77 0.79 0.77 0.74 0.74 0.73 0.74
1.11 1.21 1.29 1.34 1.39 1.41 1.48 1.54 1.65 1.62 1.57 1.59 1.53 1.45 1.39 1.21 1.18 1.28 1.37 1.31 1.25 1.17 1.13 1.00 0.77 0.78 0.87 0.87 0.87 0.87 0.97 0.97 0.91 0.89 0.86 0.82 0.78 0.79 0.77 0.74 0.73 0.72 0.74
1.05 1.14 1.24 1.28 1.33 1.37 1.41 1.50 1.53 1.56 1.59 1.65 1.45 1.38 1.25 1.18 1.11 1.23 1.38 1.32 1.28 1.24 1.15 1.12 0.94 0.76 0.79 0.86 0.87 0.85 0.90 0.99 0.97 0.90 0.88 0.85 0.80 0.79 0.77 0.75 0.73 0.74 0.73
1.04 1.05 1.16 1.23 1.30 1.35 1.41 1.44 1.47 1.54 1.48 1.58 1.60 1.38 1.23 1.13 1.08 1.12 1.29 1.30 1.28 1.22 1.20 1.19 1.13 0.90 0.79 0.76 0.82 0.83 0.83 0.88 0.97 0.93 0.88 0.87 0.85 0.82 0.82 0.79 0.78 0.76 0.77
0.90 1.03 1.08 1.19 1.24 1.30 1.32 1.42 1.49 1.49 1.52 1.39 1.52 1.54 1.50 1.40 1.16 0.90 1.20 1.29 1.29 1.21 1.17 1.18 1.19 1.12 0.90 0.79 0.73 0.73 0.74 0.81 0.88 0.94 0.94 0.89 0.88 0.83 0.79 0.81 0.79 0.81 0.80
0.72 0.99 1.02 1.12 1.21 1.23 1.30 1.35 1.40 1.47 1.54 1.45 1.45 1.45 1.46 1.41 1.40 1.13 1.04 1.19 1.26 1.23 1.21 1.20 1.17 1.19 1.15 0.92 0.77 0.72 0.68 0.68 0.70 0.77 0.91 0.95 0.90 0.86 0.82 0.83 0.82 0.82 0.81
0.59 0.83 1.03 1.02 1.17 1.15 1.25 1.27 1.35 1.45 1.52 1.54 1.51 1.49 1.43 1.33 1.30 1.24 1.19 1.26 1.25 1.30 1.26 1.33 1.26 1.21 1.21 1.19 1.05 0.88 0.78 0.71 0.70 0.68 0.69 0.77 0.90 0.91 0.88 0.85 0.80 0.80 0.80
0.47 0.67 0.88 1.01 1.00 1.15 1.26 1.30 1.31 1.38 1.47 1.47 1.50 1.43 1.45 1.39 1.44 1.40 1.31 1.29 1.27 1.35 1.36 1.41 1.42 1.39 1.28 1.25 1.24 1.16 1.05 0.93 0.83 0.76 0.68 0.63 0.66 0.76 0.83 0.82 0.79 0.79 0.76
0.47 0.61 0.73 0.95 1.00 1.11 1.16 1.25 1.29 1.33 1.39 1.43 1.48 1.39 1.37 1.41 1.45 1.46 1.42 1.33 1.24 1.28 1.35 1.36 1.47 1.44 1.42 1.35 1.35 1.35 1.25 1.15 1.06 0.97 0.88 0.80 0.65 0.65 0.68 0.70 0.73 0.75 0.74
0.45 0.55 0.63 0.80 0.91 1.03 1.14 1.20 1.25 1.28 1.34 1.39 1.45 1.44 1.41 1.43 1.48 1.50 1.47 1.44 1.30 1.15 1.21 1.37 1.37 1.49 1.48 1.45 1.40 1.43 1.43 1.41 1.31 1.19 1.13 1.08 0.98 0.85 0.74 0.70 0.69 0.70 0.71
0.46 0.50 0.54 0.63 0.80 0.91 1.04 1.13 1.14 1.25 1.29 1.32 1.43 1.41 1.40 1.42 1.41 1.47 1.47 1.46 1.42 1.33 1.21 1.41 1.45 1.49 1.53 1.52 1.48 1.42 1.43 1.47 1.49 1.48 1.41 1.31 1.23 1.15 1.02 0.91 0.82 0.75 0.75
0.45 0.45 0.47 0.51 0.62 0.80 0.92 1.05 1.09 1.17 1.21 1.25 1.32 1.37 1.38 1.41 1.36 1.39 1.45 1.43 1.36 1.37 1.27 1.38 1.46 1.54 1.52 1.49 1.49 1.51 1.53 1.49 1.52 1.52 1.53 1.50 1.47 1.43 1.35 1.21 1.08 0.97 0.82
0.43 0.40 0.43 0.45 0.49 0.65 0.84 0.91 0.97 1.06 1.13 1.17 1.25 1.29 1.31 1.39 1.35 1.41 1.39 1.38 1.36 1.38 1.32 1.29 1.42 1.42 1.46 1.57 1.56 1.52 1.54 1.56 1.52 1.53 1.54 1.54 1.53 1.51 1.46 1.44 1.37 1.21 1.11
0.41 0.39 0.40 0.42 0.44 0.52 0.69 0.83 0.93 0.97 1.02 1.10 1.20 1.24 1.24 1.29 1.25 1.28 1.30 1.31 1.34 1.39 1.36 1.33 1.30 1.45 1.49 1.53 1.48 1.52 1.49 1.48 1.49 1.54 1.56 1.55 1.57 1.55 1.53 1.48 1.44 1.35 1.24
0.39 0.38 0.37 0.40 0.43 0.46 0.54 0.67 0.81 0.93 0.96 0.98 1.05 1.15 1.18 1.20 1.16 1.19 1.20 1.24 1.30 1.27 1.30 1.30 1.29 1.32 1.39 1.44 1.44 1.38 1.34 1.45 1.45 1.51 1.53 1.55 1.58 1.56 1.54 1.49 1.44 1.37 1.30
0.39 0.38 0.36 0.37 0.40 0.42 0.45 0.51 0.61 0.76 0.86 0.92 0.99 1.01 1.09 1.12 1.14 1.15 1.14 1.19 1.17 1.22 1.24 1.22 1.20 1.23 1.24 1.28 1.25 1.34 1.31 1.36 1.40 1.48 1.45 1.47 1.49 1.51 1.52 1.53 1.43 1.40 1.35
0.37 0.36 0.35 0.35 0.36 0.39 0.43 0.44 0.47 0.53 0.65 0.81 0.89 0.91 0.98 1.04 1.09 1.08 1.15 1.18 1.18 1.16 1.12 1.15 1.16 1.15 1.23 1.23 1.29 1.29 1.29 1.23 1.15 1.47 1.40 1.38 1.50 1.48 1.54 1.55 1.55 1.50 1.46
0.33 0.33 0.33 0.34 0.34 0.35 0.39 0.41 0.43 0.45 0.47 0.55 0.68 0.75 0.78 0.92 1.01 1.03 1.09 1.09 1.10 1.13 1.15 1.16 1.13 1.12 1.14 1.23 1.28 1.26 1.28 1.25 1.21 1.33 1.32 1.24 1.43 1.41 1.54 1.58 1.57 1.54 1.55
0.30 0.30 0.32 0.32 0.33 0.33 0.34 0.37 0.40 0.43 0.44 0.46 0.51 0.57 0.66 0.72 0.83 0.93 0.96 1.01 1.03 1.01 1.03 1.07 1.08 1.09 1.13 1.16 1.23 1.26 1.29 1.30 1.32 1.38 1.39 1.15 1.32 1.29 1.44 1.51 1.56 1.54 1.55
0.25 0.26 0.30 0.32 0.31 0.32 0.34 0.34 0.36 0.39 0.40 0.42 0.45 0.48 0.53 0.58 0.67 0.77 0.80 0.85 0.87 0.92 0.98 0.97 0.99 1.03 1.04 1.19 1.20 1.23 1.13 1.13 1.11 1.17 1.31 1.23 1.23 1.24 1.29 1.34 1.44 1.51 1.52
0.24 0.23 0.26 0.30 0.31 0.31 0.33 0.33 0.33 0.33 0.35 0.38 0.41 0.43 0.45 0.47 0.51 0.57 0.64 0.68 0.74 0.78 0.82 0.84 0.91 0.93 0.94 0.96 1.09 1.18 1.08 1.03 1.08 1.07 1.11 1.13 1.24 1.21 1.11 1.26 1.32 1.43 1.45
Wind_Speed
21 20 20 21 24 23 21 21 19 18 18 25 25 24 22 18 16 15 15 14 13 14 16 16 15 14 14 12 12 12 11 12 13 12 11 10 9 9 9 9 9 9 8
22 22 22 22 20 24 23 22 20 19 17 24 28 26 23 20 18 16 15 15 13 14 16 17 16 15 14 13 13 12 12 13 13 13 11 10 9 8 8 7 7 6 6
23 23 23 24 23 23 28 24 23 21 20 20 25 27 24 22 20 18 17 16 14 14 17 17 17 15 15 14 13 13 13 14 13 13 11 10 9 8 7 6 5 5 4
24 24 24 25 25 24 27 31 27 25 24 25 25 25 25 24 22 21 18 17 15 15 17 18 19 17 16 15 14 13 14 14 14 14 12 10 9 8 7 6 5 3 3
24 25 25 25 26 26 25 25 29 29 27 26 27 27 26 25 24 23 21 19 17 16 16 19 19 18 17 16 15 14 15 15 15 14 12 11 10 9 8 6 5 3 1
25 26 26 26 27 25 26 28 26 31 29 29 28 28 28 27 26 25 23 21 19 18 17 18 20 19 19 18 17 16 16 16 16 15 14 12 11 10 9 7 6 4 2
27 25 26 27 28 27 26 26 23 28 30 29 28 28 29 29 29 27 26 24 21 20 19 19 20 20 21 20 19 18 17 17 17 16 15 14 12 11 10 9 7 6 5
28 26 25 26 26 27 28 27 27 25 28 31 32 30 26 30 30 30 28 26 24 22 21 20 20 21 21 21 20 20 19 19 18 17 16 15 14 13 12 11 10 8 7
29 27 26 26 26 25 26 26 25 27 28 29 32 33 30 29 31 31 31 29 27 25 23 22 22 22 22 22 22 22 21 21 20 19 18 17 16 15 14 13 12 11 10
30 30 28 27 27 26 26 26 26 26 28 28 29 34 32 28 31 30 32 32 29 27 26 25 24 23 23 23 24 24 23 23 22 22 21 20 19 18 17 16 15 14 13
28 31 29 27 27 27 27 25 24 26 28 28 26 32 30 28 30 30 31 32 31 29 28 27 26 25 24 24 24 25 25 25 24 24 23 23 22 21 20 19 18 17 16
30 29 31 30 26 26 27 26 25 23 27 26 27 28 30 28 31 33 31 33 32 30 29 28 28 27 26 26 25 26 26 27 26 26 26 25 25 24 23 22 21 20 20
31 31 31 31 28 27 23 25 26 24 23 27 27 24 24 26 25 31 32 32 30 32 30 31 29 29 29 28 27 27 27 28 28 27 27 27 27 26 26 25 24 24 23
32 30 30 32 31 26 26 24 25 23 24 27 31 25 23 23 21 25 28 32 30 28 30 30 30 32 31 31 30 29 29 29 29 29 29 29 29 29 29 28 27 27 26
33 32 30 31 32 29 26 22 22 26 24 23 24 28 24 21 21 23 24 28 27 28 29 30 30 31 32 33 34 33 31 30 31 31 31 31 31 31 31 31 31 30 30
32 33 31 31 32 33 31 28 26 24 23 25 21 24 23 21 20 21 24 24 26 26 25 29 28 31 31 33 34 34 34 35 33 34 34 34 33 33 33 33 33 33 33
30 32 32 31 30 33 33 31 28 27 22 20 22 24 22 22 22 22 23 23 22 24 26 24 26 26 28 33 33 33 33 34 34 35 36 37 37 36 35 35 34 34 35
28 30 31 31 30 30 32 33 32 30 28 20 23 26 24 23 21 22 23 24 23 23 24 24 22 23 25 25 31 32 33 34 35 35 36 37 38 39 39 38 38 37 36
26 28 29 30 31 30 30 32 31 33 32 30 18 24 26 25 24 23 22 24 24 25 23 23 22 24 23 24 25 28 30 31 33 36 38 39 38 38 39 39 40 39 38
24 26 28 29 31 31 30 31 33 32 32 31 32 26 27 26 27 26 25 24 26 25 25 25 26 25 25 25 25 26 26 28 28 30 33 36 39 39 39 38 38 39 38
21 24 26 28 29 30 31 31 32 33 34 35 33 33 31 30 29 29 29 29 27 26 26 26 26 26 26 26 27 28 27 27 28 29 29 30 33 35 36 36 36 37 38
20 21 24 27 29 30 31 31 32 32 33 34 34 35 35 32 32 32 31 29 29 28 28 28 28 27 27 28 28 27 27 27 25 26 27 28 29 32 32 34 34 34 35
17 20 22 24 27 29 30 32 32 32 32 33 34 34 33 36 33 35 33 32 31 30 30 29 29 29 28 28 28 28 29 28 27 26 26 26 26 27 30 30 31 32 33
13 17 20 23 25 27 29 31 33 34 33 33 33 33 34 34 35 36 36 35 34 33 32 32 31 31 30 31 31 31 30 30 29 28 27 26 26 27 29 30 31 33 34
8 13 17 20 23 25 27 29 32 34 34 34 33 33 34 34 34 35 35 36 35 35 34 34 32 32 31 30 32 33 32 32 30 30 29 30 29 27 28 30 31 33 34
6 6 12 17 20 23 25 26 29 32 34 35 35 35 33 34 34 35 35 35 36 35 34 34 34 32 33 33 31 29 33 32 31 32 31 31 31 29 28 27 28 29 30
Wind_Direction
228 226 227 223 213 211 213 209 209 209 210 205 201 197 196 196 195 194 193 192 191 189 186 185 182 180 177 177 178 172 169 165 161 157 152 146 139 132 124 117 110 101 88
230 229 228 225 221 215 212 210 209 211 211 202 202 200 200 198 197 195 196 195 194 192 191 190 189 187 185 183 181 178 175 172 168 165 162 156 150 143 136 129 119 106 87
232 231 229 225 222 221 217 214 214 210 202 197 199 200 202 202 202 200 199 198 197 196 195 193 194 192 190 188 185 184 183 180 177 174 171 168 163 157 150 144 133 114 90
232 229 228 225 223 223 220 221 219 215 212 212 206 206 205 205 205 204 203 201 200 199 198 197 197 196 194 192 191 191 189 187 184 183 182 180 178 173 167 162 155 137 100
233 229 228 226 224 224 223 220 222 215 213 212 210 209 208 209 208 206 206 205 205 203 202 201 200 201 200 200 198 196 194 192 191 191 192 191 189 188 186 184 181 177 153
232 230 228 226 224 224 223 224 226 217 213 215 211 211 212 212 210 209 209 208 208 207 206 204 205 206 205 204 204 202 199 199 198 198 199 199 199 199 200 202 203 208 227
231 231 228 226 225 223 223 223 225 214 216 212 210 213 215 214 213 212 211 211 211 211 210 208 208 210 209 209 209 208 205 205 204 205 205 207 208 209 211 214 219 227 241
227 226 225 223 224 223 224 223 226 222 217 216 215 214 215 216 216 214 213 214 214 214 214 213 213 212 212 213 214 213 212 211 211 211 212 213 216 218 221 224 228 235 246
225 225 225 223 222 220 219 223 230 225 223 220 218 218 217 218 213 215 215 216 217 218 218 218 217 217 217 217 218 218 217 217 217 218 220 221 223 225 228 231 235 242 250
227 224 225 224 223 222 223 226 227 227 223 223 218 214 217 218 212 215 216 217 219 220 220 221 221 220 221 221 221 221 221 222 223 225 226 227 229 232 234 237 241 246 252
224 224 224 223 224 225 225 225 226 227 219 217 215 213 212 217 217 217 217 216 219 221 222 223 223 223 223 224 224 225 225 226 227 229 230 232 234 237 240 242 246 250 255
224 223 224 223 225 224 225 224 224 222 215 214 213 214 216 218 223 221 219 217 219 222 223 224 225 226 226 227 227 228 228 229 231 233 234 236 238 241 243 245 249 252 256
224 223 222 222 225 223 223 221 221 219 217 211 209 208 208 216 219 217 217 216 221 225 225 227 228 229 229 229 231 231 232 233 234 236 238 239 241 243 245 247 251 253 257
221 223 223 222 218 220 220 225 216 214 216 216 206 209 204 212 215 212 215 215 220 224 227 228 231 231 232 232 233 234 236 237 238 239 241 242 244 245 247 249 252 253 256
222 223 222 221 220 221 218 219 215 216 214 209 207 205 210 213 216 212 210 212 217 222 230 231 234 234 235 236 236 237 239 240 242 242 244 245 247 248 249 251 252 254 256
222 221 222 223 224 223 226 225 223 218 220 214 209 206 207 207 210 210 212 215 221 225 230 232 234 236 237 237 237 238 242 243 245 246 246 247 248 250 251 252 254 255 257
220 221 224 225 225 225 225 224 222 216 217 211 214 210 212 213 215 217 216 218 223 226 230 232 236 238 237 238 237 240 243 244 248 249 248 248 249 251 252 254 255 257 258
220 221 223 225 225 225 225 223 226 223 222 222 219 218 219 217 221 220 221 225 228 228 231 232 236 235 236 241 239 241 244 248 251 250 249 250 251 251 253 254 255 257 259
222 223 223 224 225 226 227 226 227 225 225 222 223 218 221 223 227 226 227 230 231 231 231 233 236 239 240 243 244 244 247 250 254 252 251 251 252 252 253 255 255 255 257
223 223 224 225 226 227 229 229 228 227 228 227 227 227 227 230 231 233 233 234 233 235 234 238 239 242 243 245 245 247 250 253 255 255 253 254 252 253 254 255 254 254 255
223 225 225 226 227 228 230 231 232 231 232 232 233 231 234 235 235 236 239 236 237 239 237 239 241 243 243 246 248 250 253 256 258 257 258 259 255 252 252 253 254 254 253
228 228 229 229 229 230 232 233 233 234 234 234 235 235 236 237 237 238 238 238 240 241 241 241 241 245 244 250 251 251 253 255 261 257 258 260 260 253 253 252 254 254 254
233 232 232 232 232 233 235 235 235 234 235 235 236 237 236 236 239 238 241 240 242 243 243 243 244 247 249 249 251 252 252 255 258 258 260 261 260 258 254 251 253 256 256
241 237 236 236 235 236 238 238 237 236 236 237 236 237 238 241 241 242 242 242 243 246 247 246 245 248 250 252 252 253 253 255 256 257 258 262 262 260 259 256 255 257 258
262 243 239 239 239 239 242 240 238 237 237 237 238 239 240 242 244 243 242 243 244 246 247 248 249 249 250 255 255 252 253 255 255 256 258 259 263 265 263 260 260 260 259
344 272 248 244 243 242 243 243 240 238 238 238 238 240 242 243 244 244 244 244 244 247 248 247 248 250 254 255 253 255 252 254 257 255 260 262 261 262 263 264 263 262 262